Flag for Spain Weather past 2 weeks in Barcelona, Barcelona, Spain

Now
75 °F

Sunny.


Feels Like: 77 °F
Forecast: 59 / 73 °F
Wind: 10 mph from Southwest

Location: Barcelona Airport

Current Time: Oct 25, 2014 at 4:43:36 PM

Latest Report: Oct 25, 2014 at 4:00 PM


Visibility: 10 mi

Pressure: 30.07 "Hg

Humidity: 61%

Dew point: 61 °F

Location of BarcelonaLocation

Historic Weather in Barcelona — Graph

°F

Barcelona temperature yesterday

Maximum temperature yesterday: 75 °F (at 1:00 PM)
Minimum temperature yesterday: 55 °F (at 5:30 AM)
Average temperature yesterday: 65 °F

Past Weeks' High & Low Weather Summary

 TemperatureHumidityPressure
High81 °F (Oct 21, 1:00 PM)100% (Oct 10, 11:00 PM)30.24 "Hg (Oct 10, 11:00 PM)
Low55 °F (Oct 23, 7:30 AM)29% (Oct 24, 12:30 PM)29.71 "Hg (Oct 14, 4:00 PM)
Average68 °F73%29.99 "Hg
* Reported Oct 10 3:00 PM — Oct 25 3:30 PM, Barcelona, Weather by CustomWeather, © 2014

Note: Actual official high and low records may vary slightly from our data, if they occured in-between our weather recording intervals... More about our weather records

Advertising

Barcelona weather history for previous 24 hours

 ConditionsComfort  
Time TempWeatherWind HumidityBarometerVisibility
3:30 PM
Oct 25
75 °FSunny.10 mph57%30.07 "Hg10 mi
3:00 PM75 °FSunny.10 mph50%30.07 "Hg10 mi
2:30 PM75 °FSunny.8 mph61%30.07 "Hg10 mi
2:00 PM73 °FPassing clouds.8 mph65%30.09 "HgN/A
1:30 PM73 °FSunny.8 mph69%30.09 "Hg10 mi
1:00 PM73 °FPassing clouds.6 mph61%30.09 "HgN/A
12:30 PM75 °FPassing clouds.5 mph47%30.09 "HgN/A
12:00 PM72 °FPassing clouds.7 mph50%30.09 "HgN/A
11:30 AM68 °FSunny.8 mph56%30.09 "Hg10 mi
11:00 AM66 °FPassing clouds.10 mph56%30.09 "HgN/A
10:30 AM64 °FPassing clouds.9 mph64%30.09 "HgN/A
10:00 AM61 °FSunny.10 mph63%30.09 "Hg10 mi
9:30 AM61 °FPassing clouds.12 mph63%30.07 "HgN/A
9:00 AM59 °FPassing clouds.10 mph63%30.07 "HgN/A
8:30 AM59 °FClear.12 mph63%30.07 "Hg10 mi
8:00 AM59 °FClear.9 mph63%30.07 "Hg10 mi
7:30 AM59 °FClear.13 mph63%30.07 "Hg10 mi
7:00 AM59 °FClear.13 mph63%30.04 "Hg10 mi
6:30 AM59 °FClear.12 mph63%30.04 "Hg10 mi
6:00 AM59 °FClear.10 mph63%30.04 "Hg10 mi
5:30 AM61 °FClear.13 mph59%30.04 "Hg10 mi
5:00 AM59 °FPassing clouds.10 mph63%30.04 "HgN/A
4:30 AM61 °FClear.10 mph59%30.04 "Hg10 mi
4:00 AM61 °FClear.13 mph59%30.04 "Hg10 mi
3:30 AM63 °FClear.13 mph56%30.04 "Hg10 mi
3:00 AM63 °FClear.14 mph56%30.04 "Hg10 mi
2:30 AM63 °FClear.12 mph56%30.04 "Hg10 mi
2:00 AM63 °FPassing clouds.7 mph56%30.07 "HgN/A
1:30 AM63 °FClear.8 mph56%30.07 "Hg10 mi
1:00 AM63 °FPassing clouds.5 mph59%30.07 "HgN/A
12:30 AM64 °FClear.7 mph56%30.07 "Hg10 mi
12:00 AM64 °FClear.2 mph56%30.04 "Hg10 mi
11:30 PM
Oct 24
64 °FClear.8 mph56%30.04 "Hg10 mi
11:00 PM64 °FPassing clouds.6 mph60%30.04 "HgN/A
10:30 PM64 °FPassing clouds.6 mph60%30.04 "HgN/A
10:00 PM64 °FPassing clouds.6 mph60%30.04 "HgN/A
9:30 PM64 °FPassing clouds.5 mph68%30.04 "HgN/A
9:00 PM64 °FPassing clouds.6 mph68%30.04 "HgN/A
8:30 PM66 °FClear.2 mph73%30.01 "Hg10 mi
8:00 PM68 °FClear.No wind73%30.01 "Hg10 mi
7:30 PM70 °FSunny.No wind69%30.01 "Hg10 mi
7:00 PM72 °FSunny.3 mph61%30.01 "Hg10 mi
6:30 PM72 °FSunny.3 mph57%30.01 "Hg10 mi
6:00 PM72 °FPassing clouds.3 mph53%29.98 "HgN/A
5:30 PM73 °FSunny.6 mph50%29.98 "Hg10 mi
5:00 PM73 °FPassing clouds.6 mph53%29.98 "HgN/A
4:30 PM73 °FSunny.6 mph44%29.98 "Hg10 mi
4:00 PM73 °FPassing clouds.5 mph47%29.98 "HgN/A
Weather by CustomWeather, © 2014

See weather overviewHow to use our weather pages